Location: Allie Creek
(37.5926°N, 89.8526°W)
Time: 11:46:20
(UTC+00:00)

Cosmos 1633 Rocket - Pass Details

Date: 26 September 2023
Orbit: 604 x 621 km, 82.5° (Epoch: 10 December)

Event Time Altitude Azimuth Distance (km) Brightness Sun altitude
Rises 11:14:41 0° 359° (N) 2,889 6.5 -7.9°
Reaches altitude 10° 11:16:59 10° 5° (N) 1,982 5.8 -7.5°
Maximum altitude 11:21:13 48° 80° (E) 815 4.3 -6.6°
Drops below altitude 10° 11:25:28 10° 155° (SSE) 1,978 6.0 -5.8°
Sets 11:27:45 0° 161° (SSE) 2,881 6.7 -5.3°
